Location: General Nathan Twining Observatory
(34.5931°N, 106.8201°W)
Time: 22:52:28
(UTC-06:00)

Daily predictions for brighter satellites

Satellite Brightness Start Highest point End
(mag) Time Altitude Azimuth Time Altitude Azimuth Time Altitude Azimuth
Aurora 2 Rocket 4.2 20:35:22 10° WSW 20:40:06 25° SSW 20:43:43 10° SE
Cosmos 2369 Rocket 3.4 20:37:16 10° SSE 20:41:20 21° E 20:45:25 10° NE
Cosmos 2034 Rocket 4.1 20:38:24 10° N 20:44:31 59° E 20:50:34 10° SSE
Spot 2 Rocket 3.5 20:41:56 10° SSE 20:47:00 77° ENE 20:52:08 10° N
Cosmos 1464 Rocket 4.2 20:45:50 10° N 20:52:11 86° W 20:58:33 10° S
Shenzhou-11 Module 4.1 20:50:21 10° NW 20:52:49 22° NNE 20:55:17 10° ENE
Cosmos 1633 Rocket 4.2 20:49:47 10° SSW 20:54:01 48° W 20:58:18 10° N
NOSS 3-2 (A) 3.5 20:49:47 10° SSW 20:55:40 84° WNW 21:02:06 10° NNE
Cosmos 1400 Rocket 4.3 20:52:38 10° SSW 20:56:30 42° W 21:00:22 10° N
Cosmos 2242 Rocket 3.6 20:52:27 10° N 20:56:57 79° E 21:01:21 10° S
Helios 1B rocket 2.7 21:00:35 10° NNE 21:04:32 44° E 21:08:26 10° S
Resurs 01 Rocket 2.5 21:02:27 10° S 21:06:44 52° W 21:11:04 10° NNW
Hubble Space Telescope 2.3 21:04:53 10° WSW 21:08:13 23° SSW 21:10:54 13° SSE
USA 215 4.4 21:04:39 10° E 21:10:20 33° NNE 21:16:02 10° NNW
Cosmos 1933 Rocket 3.7 21:07:31 10° SSW 21:11:50 74° W 21:16:10 10° N
YAOGAN 6 3.1 21:10:29 14° SE 21:13:26 42° ENE 21:16:57 10° N
Envisat 3.0 21:08:46 10° SSE 21:13:50 86° WSW 21:18:56 10° NNW
NOSS 3-2 (C) 3.6 21:09:10 10° SSW 21:15:04 81° WNW 21:21:31 10° NNE
Meteor 2-3 Rocket 3.8 21:10:08 10° S 21:15:48 65° E 21:21:26 10° NNE
SJ-11-01 4.3 21:11:09 10° SSE 21:15:51 71° ENE 21:20:33 10° N
Cosmos 1898 Rocket 4.4 21:10:48 10° SSW 21:15:56 55° WNW 21:21:11 10° N
Timation 2 Rocket 4.1 21:12:12 10° NNW 21:18:35 84° ENE 21:24:50 12° SSE
Milstar 3 4.1 21:06:24 10° SW 21:18:37 41° SSE 21:25:14 13° ESE
Cosmos 1862 Rocket 3.6 21:14:33 10° N 21:19:03 87° W 21:23:32 10° S
Meteor 1-26 Rocket 4.3 21:13:54 10° N 21:19:32 66° E 21:25:08 10° SSE
Cosmos 990 Rocket 4.1 21:16:45 10° SSW 21:21:56 81° WNW 21:27:10 10° NNE
GPS 2-04 Rocket1 2.4 21:21:56 10° W 21:25:39 81° N 21:28:26 16° E
Helios 1A 2.9 21:22:42 14° SSE 21:26:16 75° ENE 21:30:28 10° N
Cosmos 1125 Rocket 4.3 21:22:28 13° SSE 21:26:17 30° E 21:30:49 10° NE
Cosmos 1315 Rocket 4.5 21:22:54 10° SW 21:26:36 36° WNW 21:30:22 10° N
Aureole 3 3.8 21:26:41 24° ESE 21:27:08 25° E 21:29:41 10° NE
ARGOS 4.3 21:25:05 17° ESE 21:27:55 27° ENE 21:32:20 10° NNE
ISS -3.8 21:27:47 10° SW 21:31:01 81° NW 21:34:16 10° NE
Meteor 2-10 Rocket 4.4 21:25:41 10° NNW 21:31:24 59° W 21:37:03 10° S
Aureole 1 4.0 21:28:27 10° S 21:31:25 64° ESE 21:34:32 10° NNE
Cosmos 2082 Rocket 3.5 21:27:58 10° NW 21:33:06 37° WSW 21:38:16 10° S
COSMOS 2487 4.1 21:32:17 10° NW 21:35:27 31° W 21:38:38 10° SSW
CENTAUR R/B 2.6 21:31:00 10° S 21:36:32 46° ESE 21:42:41 10° NE
Cosmos 1825 3.1 21:37:59 27° ESE 21:38:25 28° E 21:41:41 10° NNE
Cosmos 1408 3.4 21:40:28 30° ESE 21:40:58 32° E 21:44:19 10° NNE
COSMOS 2455 2.8 21:37:46 10° SSW 21:43:47 88° WNW 21:49:50 10° NNE
Terra 4.0 21:45:48 10° ENE 21:46:09 10° ENE 21:46:31 10° ENE
Cosmos 1833 Rocket 4.4 21:41:27 10° NW 21:46:14 29° WSW 21:51:00 10° SSW
H-2A R/B 3.3 21:44:21 21° E 21:46:15 26° ENE 21:50:39 10° NNE
Cosmos 1892 4.2 21:46:56 10° SSW 21:50:32 38° W 21:54:09 10° N
Tiangong 2 2.4 21:48:12 10° NW 21:51:11 35° NNE 21:52:13 27° ENE
SPOT 5 3.8 21:49:17 27° ESE 21:51:22 38° ENE 21:56:16 10° N
Okean 1-7 3.3 21:47:05 10° N 21:51:23 49° E 21:52:44 36° SE
Meteor 1-29 4.2 21:51:57 10° N 21:55:17 43° WNW 21:58:35 10° SSW
Cosmos 1703 Rocket 3.5 21:51:25 10° N 21:55:52 88° E 21:57:56 31° S
DNEPR-1 R/B 3.8 21:54:09 10° SSW 21:59:43 69° ESE 22:04:24 10° NE
Cosmos 2344 3.7 21:52:51 10° S 22:00:17 52° ESE 22:07:59 10° NE
Cosmos 1733 Rocket 4.2 22:06:59 27° ENE 22:06:59 27° ENE 22:09:59 10° NNE
MetOp-A 4.0 22:04:04 33° SSE 22:06:35 81° ENE 22:11:58 10° N
OAO 2 Rocket 3.7 22:01:58 10° W 22:06:45 45° SSW 22:07:50 39° SSE
Lacrosse 5 rocket 1.9 22:04:24 10° SW 22:07:52 49° NW 22:11:24 10° NNE
Cosmos 2263 4.2 22:02:23 10° SSW 22:08:10 89° ESE 22:13:57 10° NNE
CZ-4B DEB 4.4 22:09:44 23° SW 22:10:33 26° W 22:13:05 10° NW
Cosmos 1943 Rocket 2.0 22:05:37 13° SSW 22:10:37 74° ESE 22:16:11 10° NNE
Cosmos 1869 Rocket 4.1 22:07:55 16° SSW 22:11:12 57° W 22:15:29 10° N
NOAA 11 4.3 22:10:02 28° S 22:13:00 74° WSW 22:18:29 10° NNW
Cosmos 1346 Rocket 4.4 22:12:10 10° NNW 22:15:41 30° W 22:18:00 17° SW
Cosmos 158 Rocket 4.2 22:12:35 10° N 22:17:17 46° ENE 22:17:54 43° E
Cosmos 1340 3.3 22:14:58 10° N 22:18:04 41° NE 22:18:04 41° NE
Cosmos 2221 Rocket 3.8 22:17:21 10° NNW 22:21:46 68° W 22:23:01 44° SSW
Cosmos 2369 Rocket 3.3 22:19:34 10° SW 22:24:56 45° WNW 22:30:23 10° N
ERS-1 Rocket 3.6 22:23:22 29° SSW 22:25:41 52° W 22:30:37 10° NNW
Nimbus 7 Rocket 4.3 22:20:07 10° NNE 22:25:59 70° ESE 22:28:04 41° S
Cosmos 1606 2.6 22:22:21 10° N 22:26:04 81° WNW 22:26:04 81° WNW
Shenzhou-11 Module 3.5 22:26:27 10° WNW 22:28:25 36° WNW 22:28:25 36° WNW
Cosmos 1048 Rocket 4.0 22:26:26 10° N 22:31:44 65° ENE 22:32:24 59° ESE
DMSP B5D2-2 4.0 22:28:04 10° NNE 22:33:13 59° E 22:33:27 58° ESE
Meteor 1-10 Rocket 4.4 22:29:39 10° NNW 22:35:35 72° W 22:37:43 41° SSW
Meteor 1-27 Rocket 3.7 22:31:02 10° N 22:36:46 67° E 22:37:36 59° SE
Cosmos 2084 3.4 22:33:36 10° NNW 22:37:00 68° NW 22:37:00 68° NW
SPOT 1/Viking Rocket 3.4 22:43:30 70° S 22:44:08 89° W 22:49:22 10° NNW
GEOS 3 Rocket 4.2 22:43:40 41° ENE 22:44:20 43° NE 22:49:15 10° NNW
YAOGAN 11 4.4 22:44:03 60° SW 22:44:25 63° WSW 22:48:56 10° NNW
Cosmos 1092 Rocket 4.0 22:47:18 55° ESE 22:47:39 56° E 22:53:38 10° NNE
Cosmos 1782 4.1 22:46:45 10° NNW 22:50:22 33° W 22:50:37 33° W
Nadezhda 4 Rocket 3.9 22:48:55 55° S 22:50:27 87° E 22:56:40 10° N
Lacrosse 4 Rocket 2.3 22:48:24 10° NNW 22:52:03 44° NNE 22:52:03 44° NNE
USA 215 3.3 22:51:26 53° SSE 22:52:57 71° SW 22:59:31 10° NW
H-2A R/B 3.7 22:57:24 24° NE 22:57:24 24° NE 22:59:33 10° N
ATLAS 5 CENTAUR R/B 2.5 22:52:30 10° NNW 22:58:36 66° ENE 22:59:24 60° E
Cosmos 1269 Rocket 4.1 22:57:43 10° NNW 23:02:58 69° WSW 23:03:03 69° WSW
H-2A ROCKET BODY 3.5 23:02:45 10° WSW 23:33:26 - ESE 23:05:18 33° SW
ISS -0.3 23:06:54 10° NW 23:07:57 11° NNW 23:08:59 10° N
ARGOS 4.4 23:06:36 29° SW 23:07:58 33° W 23:12:46 10° NW
Landsat 7 4.1 23:08:37 65° NW 23:08:37 65° NW 23:12:51 10° NNW
SL-19 R/B 4.4 23:04:31 10° NNE 23:10:34 73° E 23:10:34 73° E
Cosmos 1656 Rocket 3.6 23:13:09 73° W 23:13:17 74° WNW 23:18:47 10° NNE
Terra 2.5 23:24:15 53° NW 23:24:15 53° NW 23:27:59 10° NNW
Cosmos 1867 4.5 23:19:55 10° NNW 23:24:30 40° NE 23:24:30 40° NE
H-2A R/B 3.3 23:24:59 34° WSW 23:25:27 34° W 23:30:20 10° NNW
CENTAUR R/B 4.3 23:22:14 10° WSW 23:27:23 28° NW 23:33:08 10° NNE
Cosmos 2227 Rocket 4.2 23:32:31 10° NNE 23:36:06 17° NE 23:36:06 17° NE
Cosmos 2195 Rocket 4.5 23:39:50 79° WNW 23:39:50 79° WNW 23:46:01 10° N
Cosmos 2219 3.8 23:34:01 10° NNW 23:38:45 49° NNE 23:38:45 49° NNE
Cosmos 1655 Rocket 4.2 23:45:17 61° NE 23:45:17 61° NE 23:50:29 10° N
CZ-2C R/B 4.4 23:40:01 10° NNE 23:42:04 22° NE 23:42:04 22° NE
